Regional Weather Roundup
Issued by NWS Cleveland, OH

Home | Current Version | Previous Version | Text Only | Print | Product List | Glossary Off
Versions: 1 2 3 4 5 6 7 8 9 10 11 12 13 14 15 16 17 18 19 20 21 22 23 24 25 26 27 28 29 30 31 32 33 34 35 36 37 38 39 40 41 42 43 44 45 46 47 48 49 50

000
ASUS41 KCLE 010000
RWRCLE
OHIO REGIONAL WEATHER ROUNDUP
NATIONAL WEATHER SERVICE WILMINGTON, OH
800 PM EDT TUE MAY 31 2016

NOTE: "FAIR" INDICATES FEW OR NO CLOUDS BELOW 12,000 FEET WITH NO
SIGNIFICANT WEATHER AND/OR OBSTRUCTIONS TO VISIBILITY.

OHZ001>008-015>018-024>027-034-035-043-044-010100-
   NORTHWEST OHIO

CITY           SKY/WX    TMP DP  RH WIND       PRES   REMARKS
DEFIANCE       FAIR      80  49  33 E10       29.99R
FINDLAY        FAIR      78  42  27 E15       30.00R
TOLEDO EXPRESS FAIR      76  50  40 E12       30.01S
TOLEDO EXEC    FAIR      76  49  38 E8        30.02F
LIMA           FAIR      80  50  34 E13       29.99R
$$

OHZ009>014-019>023-028>033-038-089-010100-
   NORTHEAST OHIO

CITY           SKY/WX    TMP DP  RH WIND       PRES   REMARKS
CLE-HOPKINS    MOCLDY    76  46  34 NE13      30.05R
CLE-LAKEFRONT  FAIR      71  63  75 NE8       30.02S
CUY CO. ARPT   MOCLDY    75  52  43 NE10      30.05R
LORAIN-ELYRIA  FAIR      76  45  33 E14       30.04R
ASHTABULA      FAIR      73  48  41 N5        30.05R
AKRON-CANTON   MOCLDY    74  53  48 NE10      30.03R
WOOSTER        NOT AVBL
MANSFIELD      FAIR      74  49  41 N10       30.03S
YOUNGSTOWN     CLOUDY    75  47  36 N9        30.03R
$$

OHZ042-051>053-060>062-070>072-077>081-010100-
  SOUTHWEST OHIO

CITY           SKY/WX    TMP DP  RH WIND       PRES   REMARKS
CINC-COVINGTON MOCLDY    80  64  58 S7        29.96R
CINC-LUNKEN    FAIR      80  67  64 S5        29.95R
HAMILTON       FAIR      81  63  54 CALM      29.95R
DAYTON         NOT AVBL
WRIGHT-PAT AFB NOT AVBL
DAYTON GENERAL FAIR      80  58  46 S5        29.95R
WILMINGTON     FAIR      78  62  57 S5        29.96S
$$

OHZ036-037-039>041-045>050-054>059-063>069-073>076-082>088-010100-
  CENTRAL AND SOUTHEAST OHIO

CITY           SKY/WX    TMP DP  RH WIND       PRES   REMARKS
COLUMBUS       MOCLDY    81  54  39 NE9       29.96R
OSU AIRPORT    FAIR      79  59  50 NE9       29.97R
BOLTON FIELD   NOT AVBL
RICKENBACK AFB NOT AVBL
NEWARK         FAIR      85  54  34 MISG      29.97R
MARION         FAIR      78  54  43 NE15      30.01R
LANCASTER      FAIR      80  62  54 CALM      29.97R
ZANESVILLE     FAIR      84  60  44 NE5       29.98R
NEW PHILLY     FAIR      82  58  43 NE12G18   30.00R
$$




USA.gov is the U.S. government's official web portal to all federal, state and local government web resources and services.